Location: Bettgenhausen
(50.6463°N, 7.5681°E)
Time: 20:48:47
(UTC+00:00)

NOSS 2-3 (C) - Pass Details

Date: 27 February 2020
Orbit: 585 x 1627 km, 63.4° (Epoch: 26 March)

Event Time Altitude Azimuth Distance (km) Brightness Sun altitude
Rises 17:50:32 0° 219° (SW) 2,833 7.6 -7.7°
Reaches altitude 10° 17:52:37 10° 218° (SW) 1,979 6.8 -8.0°
Maximum altitude 17:57:00 83° 132° (SE) 698 3.8 -8.7°
Drops below altitude 10° 18:02:21 10° 45° (NE) 2,399 6.1 -9.6°
Enters shadow 18:04:31 - 45° (NE) 3,263 6.8 -9.9°
